Temp
17 17 18 18 18 18 18 18 19 19 19 19 19 19 20 20 20 20 20 20 20 20 20 21 21 21 21 21 20 20 19 19 18 15 16 24 26 26 26 26 26 26 25 25 24 24 22 21 22 22 22 22 22 22 22 22 22 22 22 21 21 20 21 22 22 21 22 23 20 18 20 20 19 18 18 18 18 18 18 18 18 17 17 18 18 18 19 18
17 17 17 18 18 18 18 18 18 19 19 19 19 19 20 20 20 20 20 20 21 20 21 21 21 21 20 21 20 19 19 18 17 15 20 26 27 26 26 26 26 26 25 25 25 24 23 22 22 22 22 22 22 22 23 22 22 22 21 21 21 21 22 22 23 21 22 23 20 18 20 20 19 18 18 19 18 18 19 18 18 18 17 17 17 18 18 18
17 17 17 18 18 18 18 18 18 19 19 19 19 19 19 20 20 20 20 20 21 21 21 21 21 20 20 20 19 19 17 17 19 22 26 28 27 27 26 26 26 26 26 25 26 25 24 23 22 21 23 23 22 22 23 22 22 22 21 21 22 23 22 22 22 21 21 22 20 19 19 20 19 18 19 19 18 18 19 18 17 18 17 17 17 17 18 18
17 17 17 17 18 18 18 18 18 18 19 19 19 19 19 19 20 20 20 20 21 21 21 21 21 20 21 20 19 18 16 19 24 27 28 28 28 28 27 27 26 26 26 26 26 25 24 23 21 21 22 23 22 22 23 23 22 21 21 23 23 22 22 22 21 21 20 20 20 19 19 19 19 18 19 18 18 18 19 19 18 18 18 18 18 17 17 18
16 17 17 17 17 18 18 18 18 18 18 18 19 19 19 19 20 20 20 21 21 21 21 21 20 20 20 20 19 17 18 23 27 28 28 28 29 28 28 27 26 25 24 25 25 24 24 22 21 21 22 23 23 22 23 23 22 22 22 23 23 21 22 22 20 20 19 19 19 19 20 20 19 18 18 19 20 19 19 19 19 18 18 18 18 18 17 17
16 16 16 17 17 17 18 18 18 18 18 18 18 19 19 19 20 20 20 21 21 21 21 21 20 20 20 19 18 17 20 25 26 27 28 28 29 29 28 27 26 25 25 25 24 24 24 22 22 22 22 23 23 23 23 22 22 23 22 22 22 22 22 21 19 19 19 20 20 20 20 19 19 19 18 19 19 19 19 19 19 18 17 17 18 18 18 19
16 16 16 16 17 17 17 18 18 18 18 18 18 19 19 19 20 20 20 21 21 21 21 21 20 19 19 19 18 18 21 25 26 28 28 28 29 28 28 27 26 26 25 25 24 24 24 23 23 23 22 23 23 23 23 22 22 23 23 23 22 22 22 20 19 19 19 21 20 19 20 19 20 19 18 19 19 18 18 18 18 17 17 18 18 19 19 19
16 16 16 16 16 17 17 17 18 18 18 18 18 19 19 19 20 20 21 21 21 21 21 21 20 19 19 18 18 20 22 25 27 28 28 28 28 28 28 27 26 26 25 24 24 24 24 24 23 22 23 23 23 23 22 22 22 23 23 23 22 21 20 20 19 19 20 20 19 19 20 19 19 20 19 19 18 17 17 18 18 18 18 19 19 19 19 19
16 16 16 16 16 16 17 17 17 18 18 18 18 18 19 19 20 20 21 21 22 22 21 21 19 19 19 17 19 23 25 27 28 28 28 29 28 28 27 26 26 27 26 24 24 24 24 24 24 24 24 23 23 23 23 23 23 23 24 23 23 21 20 19 20 20 20 19 19 20 20 19 19 19 19 19 18 18 18 18 19 19 19 19 20 19 19 20
15 15 16 16 16 16 16 17 17 17 18 18 18 18 19 19 20 21 21 22 22 22 21 20 19 19 18 17 20 25 27 27 27 28 28 28 28 27 27 27 26 26 25 24 23 24 25 25 24 24 24 23 23 23 23 23 24 23 23 22 22 21 20 20 20 20 20 19 20 20 19 19 19 19 20 19 18 18 18 19 19 19 20 19 20 20 19 19
15 15 15 16 16 16 16 16 17 17 17 18 18 18 19 19 20 21 21 22 22 22 21 20 19 18 17 18 22 25 27 27 27 27 27 28 28 27 27 27 26 26 25 23 23 24 25 24 23 24 24 24 24 23 23 24 24 23 23 22 21 21 21 21 21 20 21 20 20 20 19 19 20 20 20 19 18 18 19 19 19 19 20 19 20 19 18 18
15 15 15 15 16 16 16 16 17 17 17 18 18 19 19 19 20 21 21 22 22 22 21 20 19 18 17 18 21 25 28 28 27 27 27 27 27 27 27 27 26 26 25 24 23 24 25 24 24 25 24 24 24 24 24 24 23 23 23 23 21 21 21 21 21 21 21 20 20 20 20 19 20 20 19 18 18 19 19 19 19 19 19 20 19 19 19 18
15 15 15 15 15 16 16 16 17 17 17 18 18 18 19 19 20 21 22 22 22 21 21 20 19 17 18 21 24 26 28 27 27 27 27 26 26 26 27 27 26 26 25 25 24 25 25 25 25 25 25 25 24 24 24 23 23 23 23 22 22 21 22 22 21 21 21 20 20 21 21 20 20 19 18 18 19 19 19 19 19 19 19 19 19 20 19 18
15 15 15 15 15 15 16 16 17 17 17 18 18 18 19 20 21 21 22 22 21 21 20 19 18 17 18 23 26 27 27 27 27 27 27 26 26 26 26 26 26 26 25 25 25 26 26 25 25 25 24 24 24 24 24 23 23 23 23 22 21 21 21 22 21 21 21 20 20 22 21 20 19 19 18 18 19 19 19 19 19 19 19 19 19 20 20 19
15 15 15 15 15 15 16 16 17 17 17 18 18 18 18 19 19 20 21 20 20 19 19 18 17 17 19 23 26 26 26 26 26 27 28 27 26 26 26 26 26 26 26 25 25 26 26 25 24 25 24 24 24 24 24 24 22 22 22 22 21 21 21 22 21 22 22 20 20 22 21 20 20 19 19 19 19 19 19 19 19 19 19 19 19 19 20 19
14 14 15 15 15 15 16 16 17 17 17 17 18 18 18 18 18 18 19 19 18 18 17 17 16 17 21 24 25 26 25 26 26 27 28 27 26 26 26 26 25 25 25 25 25 25 25 25 24 24 24 24 24 24 23 23 22 22 21 21 21 21 21 21 22 22 22 21 20 21 21 21 20 19 19 19 19 19 19 19 19 19 19 19 19 19 19 19
14 14 14 14 15 15 15 16 16 17 17 17 18 18 17 17 17 17 18 18 18 17 17 17 16 17 22 25 25 26 26 26 27 27 27 27 27 26 26 26 25 24 24 25 25 25 25 25 24 24 24 23 23 24 22 21 22 21 21 21 21 21 21 21 22 22 21 21 21 21 21 21 20 19 19 19 19 19 19 19 19 19 19 19 19 19 19 19
14 14 14 14 14 15 16 16 16 17 17 17 18 17 17 16 16 16 17 17 17 17 17 17 17 20 24 25 25 25 26 26 27 27 27 28 27 26 26 26 25 25 24 25 25 25 25 24 23 24 24 22 23 23 22 21 22 22 21 22 21 21 21 21 22 22 21 22 21 20 20 21 20 19 19 19 19 19 19 19 19 19 19 19 19 19 19 19
14 14 14 14 14 15 16 16 16 16 16 18 18 17 16 16 17 17 17 17 18 20 21 20 20 23 24 24 24 25 25 26 27 27 27 27 26 25 25 26 26 26 25 25 24 24 25 24 23 23 23 23 24 24 23 24 24 23 23 22 22 21 22 22 23 22 21 21 21 20 21 21 21 20 19 19 19 19 19 19 19 19 19 19 19 19 19 19
14 14 14 14 14 15 16 16 16 16 17 18 18 17 17 18 19 19 17 18 19 21 22 21 21 23 23 24 24 25 26 26 27 27 27 27 26 25 25 25 26 26 25 25 24 24 24 24 23 23 24 25 25 24 24 24 24 23 23 22 22 21 22 23 23 22 22 22 21 21 21 21 22 21 19 19 19 19 19 19 19 19 19 19 19 19 19 20
14 14 13 13 14 15 16 16 16 17 16 17 17 18 18 18 19 19 18 19 19 19 20 20 21 22 23 23 24 25 25 25 26 26 27 27 26 26 26 25 25 25 25 25 24 24 24 23 23 24 24 25 25 24 23 23 23 23 23 22 22 21 22 23 23 22 22 23 21 20 21 22 22 21 19 19 19 19 19 19 19 19 19 19 19 20 20 19
14 14 13 13 14 15 16 16 17 17 17 17 16 16 18 18 18 18 17 19 20 18 19 20 19 20 22 22 23 24 24 24 26 26 27 27 26 26 26 25 25 25 24 25 24 24 23 23 24 24 24 24 24 24 24 23 23 23 22 22 22 22 23 23 23 21 22 23 22 21 21 21 22 21 20 19 19 20 20 19 20 20 20 20 20 20 20 19
13 13 13 14 14 15 16 16 17 17 16 15 12 14 17 18 18 17 17 18 19 19 20 20 20 21 21 22 23 24 24 24 25 27 27 26 26 26 26 25 25 25 24 25 24 23 22 23 25 25 24 25 24 24 24 24 23 23 22 22 22 22 22 22 22 21 22 23 22 21 21 21 22 21 20 20 20 20 20 20 20 20 20 20 20 20 20 20
13 13 13 13 14 15 16 17 17 16 16 14 12 15 18 18 17 17 17 19 20 20 20 21 22 22 22 24 24 24 24 24 25 27 27 27 26 26 26 26 25 24 24 25 25 24 24 25 26 25 25 25 24 24 24 23 23 22 23 22 23 23 22 22 22 21 22 22 22 21 21 21 22 22 22 21 20 20 21 21 21 21 21 20 20 20 20 20
13 13 13 13 13 14 16 16 16 16 15 14 15 17 18 18 17 17 18 20 20 21 21 21 22 23 24 25 24 25 25 25 26 26 26 27 27 26 26 26 25 25 25 24 24 24 24 26 26 25 25 25 25 24 23 23 22 22 23 23 24 24 23 22 22 22 21 21 22 22 21 21 21 21 22 21 20 20 21 21 21 21 21 21 21 21 20 20
13 13 13 13 12 14 16 16 15 14 14 16 17 18 17 18 17 17 18 20 21 22 23 22 23 24 26 24 24 25 25 26 26 26 26 27 27 28 27 26 26 26 25 24 24 24 25 25 26 26 25 25 25 24 23 23 22 22 23 24 25 25 24 22 22 22 21 20 22 23 21 21 20 21 22 21 21 21 21 21 21 21 21 21 21 21 20 20
13 12 12 12 12 11 12 13 12 12 15 18 18 18 18 19 18 18 19 20 21 22 23 22 23 25 26 24 24 26 25 26 27 26 26 28 28 28 27 26 26 26 26 25 23 24 26 26 26 26 26 24 24 24 24 23 22 22 24 25 24 25 24 23 23 22 21 21 22 22 22 21 21 22 21 21 21 21 21 21 21 21 21 21 21 21 20 20
13 13 12 12 12 9 8 9 8 10 16 19 17 17 19 18 18 19 20 20 21 23 24 24 24 26 26 24 25 27 26 27 28 27 26 27 28 28 27 27 27 26 27 25 23 24 26 27 27 26 25 24 24 25 25 23 24 24 24 24 24 24 24 24 24 22 21 21 21 21 22 21 21 21 21 20 21 21 21 21 21 21 22 21 21 21 21 20
13 13 13 12 11 10 8 7 7 12 17 18 16 18 18 18 19 20 20 20 22 24 25 25 25 26 25 24 25 27 27 27 28 27 26 27 28 28 27 27 27 27 27 26 25 26 26 27 27 27 26 26 26 25 24 24 25 24 23 24 23 23 23 23 23 23 21 21 21 21 21 21 21 22 21 20 21 22 22 22 22 21 22 22 21 21 21 20
13 13 13 11 9 9 8 7 10 16 17 16 16 17 18 19 20 20 20 21 23 24 24 25 25 25 25 24 24 25 26 27 28 28 27 27 27 28 27 27 27 27 26 26 26 27 26 26 26 27 27 27 25 24 23 24 25 24 24 25 24 23 23 23 23 22 21 21 21 21 21 21 21 21 21 21 23 23 23 23 22 22 22 22 22 21 21 20
13 14 13 10 8 7 7 9 14 17 16 15 16 17 18 20 20 19 20 22 23 23 24 25 25 25 24 24 25 25 25 26 27 28 27 27 27 27 27 26 26 26 25 26 26 26 27 26 26 27 26 25 25 24 24 24 24 25 26 25 23 23 22 22 22 22 21 21 21 20 20 21 20 21 23 23 23 23 23 24 24 23 23 22 22 21 21 20
14 14 14 11 9 7 8 13 16 15 16 16 15 17 20 20 19 19 21 22 22 22 23 24 24 24 24 24 25 25 25 26 27 27 27 27 27 27 27 26 26 24 22 23 24 25 27 27 26 26 26 25 25 24 23 24 25 25 25 23 22 21 21 21 21 21 21 20 21 20 20 21 21 22 24 24 24 23 24 24 25 24 23 22 22 21 21 20
14 15 16 15 13 11 12 15 14 14 15 15 15 19 21 20 19 20 21 21 21 22 23 23 23 23 22 24 25 25 25 26 26 27 27 26 26 26 26 26 27 25 23 22 22 23 25 26 26 26 26 26 26 25 23 23 24 24 24 23 21 21 21 21 20 20 20 21 21 21 21 21 21 23 25 25 25 24 23 24 24 25 24 23 22 21 21 20
15 16 17 17 16 16 16 15 13 14 15 15 17 20 20 19 20 20 20 21 21 22 23 22 23 22 22 23 25 25 25 26 26 26 26 26 25 25 26 25 26 26 25 23 22 22 22 23 26 27 26 27 27 26 24 24 24 24 24 23 22 21 21 21 21 21 21 21 21 21 21 21 21 23 24 24 23 22 22 23 24 24 24 23 22 21 20 20
16 17 17 17 17 17 17 16 14 14 14 16 19 20 19 19 20 20 20 20 21 22 22 22 23 23 23 24 24 25 26 26 26 26 26 26 25 25 26 26 25 26 26 23 22 22 21 22 27 27 26 27 27 26 26 25 24 23 24 23 22 22 23 21 20 20 20 21 21 21 21 21 22 24 23 22 22 22 22 23 24 24 23 22 22 21 21 20
16 18 18 18 17 17 17 17 15 14 15 18 19 19 19 20 20 20 20 21 21 21 21 22 23 23 23 23 24 25 26 26 26 26 25 25 25 25 26 27 26 26 27 24 23 23 21 23 27 27 26 27 27 26 27 25 24 23 23 23 23 23 24 21 19 19 20 21 21 20 21 22 22 24 24 23 23 23 22 23 24 23 23 23 22 21 21 20
15 16 17 17 17 17 17 17 16 16 17 19 19 19 19 20 20 20 21 21 21 21 21 21 22 22 21 22 23 24 25 25 25 25 24 24 25 25 26 27 26 26 28 26 24 24 22 23 26 27 27 27 26 27 27 26 25 24 23 24 23 23 24 23 21 20 20 21 21 20 21 22 21 23 25 25 25 24 23 23 23 23 22 23 22 21 21 20
10 11 15 17 17 17 18 18 17 16 18 19 18 18 18 19 20 20 21 21 21 21 21 21 22 22 21 21 22 24 24 24 24 25 24 24 24 25 27 28 27 26 27 27 26 25 24 23 25 27 26 26 26 27 26 25 26 25 25 25 24 22 23 22 21 21 21 21 21 21 21 21 21 22 25 26 26 25 23 23 23 23 23 23 22 22 21 21
8 12 17 17 17 18 18 17 17 17 19 18 18 18 18 19 20 21 21 21 21 21 21 21 21 22 22 22 22 23 23 23 24 24 23 23 24 25 27 27 27 27 26 27 27 26 24 23 23 25 26 26 26 26 24 24 25 25 25 25 24 23 22 22 21 21 21 21 21 21 21 21 22 23 24 26 27 25 23 23 24 24 23 23 22 22 21 21
9 15 18 17 17 18 17 17 17 18 19 17 17 19 19 19 21 21 21 21 21 22 21 21 22 22 22 22 22 23 23 23 24 24 23 24 24 25 26 27 28 27 25 26 26 25 25 23 22 25 26 24 25 26 25 26 25 25 24 24 24 23 22 22 22 21 21 21 21 21 21 21 23 24 24 25 25 24 24 25 25 24 23 22 22 22 21 21
10 16 18 17 18 17 17 17 17 17 17 17 17 18 18 19 20 21 21 21 21 22 22 21 22 22 22 22 22 23 23 24 24 24 24 24 24 25 26 26 27 27 25 26 26 25 25 23 22 23 24 23 25 26 26 26 26 26 26 24 24 23 22 22 21 20 21 21 21 21 21 22 24 23 22 23 23 23 23 23 24 23 23 22 22 22 21 21
12 17 18 17 17 17 17 18 16 15 16 17 17 18 18 19 20 20 21 21 21 22 22 21 22 22 22 22 22 23 23 24 24 24 24 24 24 25 25 25 25 26 26 26 26 25 25 24 23 22 23 24 25 25 23 23 25 26 25 24 24 24 23 22 22 21 21 20 20 21 21 22 24 22 20 20 20 21 22 23 23 23 22 22 22 22 21 21
14 16 17 18 17 17 18 18 16 16 17 18 18 18 18 19 20 21 21 21 21 21 21 22 22 22 22 22 22 22 23 23 23 24 24 24 25 25 24 23 24 26 26 26 25 24 24 24 22 22 24 25 26 25 24 23 24 25 24 22 23 24 24 23 22 22 21 20 20 21 21 22 24 21 19 19 19 21 22 22 23 23 22 22 21 21 21 21
10 11 15 17 18 18 18 17 16 17 17 17 17 18 19 19 20 20 20 20 21 21 21 22 22 22 22 21 21 22 22 22 23 23 23 24 25 25 24 23 24 26 26 27 26 26 24 23 22 21 22 23 24 24 24 24 25 25 23 21 22 23 23 23 22 22 22 21 21 22 21 22 24 21 19 19 19 20 21 20 21 23 23 23 22 21 21 21
10 11 13 15 17 18 17 16 16 16 16 16 17 18 19 19 20 20 20 20 20 20 21 21 21 21 21 21 21 21 21 22 22 22 22 23 24 25 25 24 24 25 25 25 26 26 25 23 22 22 21 21 21 22 22 23 24 23 22 22 22 23 24 23 22 22 22 20 21 21 21 23 24 20 18 18 18 18 19 18 18 20 22 23 22 21 21 20
13 15 15 16 17 16 16 15 14 15 16 16 17 18 18 19 19 20 20 20 20 20 20 20 20 21 20 20 21 21 21 21 22 21 21 22 23 24 24 24 23 24 25 24 24 25 24 22 22 23 22 22 22 22 21 22 23 22 22 22 21 21 23 23 23 22 22 21 21 22 22 23 22 19 17 17 17 17 17 17 17 18 19 21 22 21 21 20
13 14 14 15 16 16 16 15 14 14 15 15 16 18 17 18 18 19 20 20 20 20 20 20 20 20 20 20 21 21 21 20 21 21 20 20 21 22 23 24 23 23 25 25 23 24 25 23 21 22 22 21 21 21 21 21 22 21 21 22 21 21 23 24 23 22 21 21 21 22 21 21 20 18 17 17 16 16 17 16 16 16 17 19 21 21 21 21
13 13 12 13 14 16 16 15 14 14 15 15 16 17 17 18 18 19 19 20 20 20 20 20 19 19 19 19 20 20 20 21 21 20 20 20 21 22 24 25 25 23 25 25 23 24 26 23 21 22 22 21 20 20 20 20 19 18 17 18 19 21 23 23 21 19 21 22 21 20 20 19 18 17 17 17 16 16 16 16 16 16 16 17 19 21 21 20
12 13 12 11 13 14 14 14 13 14 15 16 16 17 17 17 18 18 18 19 19 19 19 19 19 19 19 19 20 19 19 20 20 19 20 20 20 21 23 24 25 23 24 25 23 23 24 22 22 23 23 22 21 20 20 20 19 18 16 16 16 17 18 19 18 17 19 20 19 18 18 18 17 17 16 16 16 16 16 16 16 16 16 16 17 18 18 19
12 13 12 12 13 13 13 13 13 15 16 16 16 17 16 17 17 17 18 18 19 19 18 18 18 19 18 19 19 19 18 19 19 19 19 20 20 21 21 22 23 23 23 24 23 23 24 21 21 23 23 22 22 21 20 20 20 19 17 16 15 16 16 16 16 17 18 19 17 18 19 18 17 16 16 16 16 16 16 16 16 16 15 15 16 16 16 16
10 10 10 12 14 13 13 13 13 15 16 15 16 16 16 17 16 16 18 18 18 18 18 17 18 19 19 19 19 19 18 18 18 19 19 19 20 21 21 21 21 21 23 23 23 24 24 21 20 22 22 21 21 21 21 21 22 21 19 17 16 17 18 17 16 16 17 18 18 19 20 18 17 16 16 16 16 16 15 15 15 15 15 15 15 15 15 15
9 10 9 11 14 13 13 14 14 15 16 15 15 16 16 16 16 16 18 18 18 18 17 17 18 19 19 20 20 19 18 17 18 18 18 19 19 19 20 20 20 20 21 22 22 22 22 22 21 22 22 21 20 20 20 21 22 21 19 17 16 16 17 16 16 16 16 16 18 19 18 17 16 16 16 16 16 15 15 15 15 15 15 15 15 15 15 15
Height
795 793 792 790 788 787 785 784 782 780 779 776 774 773 771 769 768 766 765 763 761 759 757 756 755 753 752 750 749 748 748 747 745 746 744 734 731 734 736 737 739 739 741 742 743 744 747 749 750 750 752 753 754 754 754 755 757 760 770 778 781 783 779 771 771 771 765 764 770 772 769 771 776 776 774 774 777 778 779 780 778 778 778 779 780 779 780 784
795 793 791 790 788 787 785 783 782 780 778 776 774 772 770 769 767 766 764 762 761 758 757 755 754 753 751 750 748 748 747 745 744 743 736 729 729 732 734 736 738 739 740 741 742 743 747 751 751 752 753 755 755 754 755 756 757 763 772 778 778 776 769 762 761 762 761 762 767 771 769 769 773 775 774 777 782 780 780 782 781 780 780 781 780 780 782 785
795 793 791 790 788 786 785 783 781 779 777 776 774 772 770 768 766 765 763 762 760 758 756 754 753 752 751 749 748 748 747 745 743 737 730 728 729 730 732 735 736 738 739 741 742 743 746 749 750 752 754 756 756 755 757 757 758 762 769 776 772 765 763 760 760 760 760 761 766 771 770 770 772 773 773 778 784 782 781 782 782 783 783 783 782 781 783 785
795 793 791 789 788 786 784 782 780 779 777 775 773 771 769 767 765 764 762 761 759 757 755 753 753 751 751 749 748 748 746 746 741 731 728 729 729 729 731 733 735 738 740 741 743 745 747 748 749 751 756 758 757 756 757 756 758 762 766 769 765 762 763 760 759 760 761 762 765 770 771 772 772 772 774 778 783 784 781 778 778 780 781 783 783 783 784 785
795 793 791 789 787 785 783 782 780 778 776 774 772 770 768 766 764 762 761 760 758 756 754 753 752 751 751 749 749 747 747 751 740 727 729 729 729 730 731 733 736 738 741 743 745 747 749 751 753 756 760 759 758 757 757 755 756 762 763 761 759 761 762 759 760 761 762 765 766 769 770 771 772 773 775 776 780 781 776 774 774 776 778 781 783 783 784 785
795 792 791 789 787 785 783 781 779 777 775 773 771 769 767 765 763 761 760 758 757 755 753 752 751 751 750 749 750 747 750 752 736 727 730 729 730 730 731 734 735 738 741 743 745 746 749 753 757 761 761 759 759 758 757 756 756 761 762 758 758 759 759 759 762 762 762 764 767 769 768 771 774 776 777 776 776 775 772 772 773 776 777 779 781 783 784 785
794 792 790 788 786 784 782 780 778 776 774 772 770 768 766 764 762 760 758 757 756 754 752 751 750 750 750 749 749 748 750 745 730 729 731 729 731 730 732 734 735 738 740 742 743 746 751 755 758 759 760 760 759 758 757 757 757 761 762 758 757 758 759 760 762 763 762 763 766 768 768 772 774 775 777 776 775 773 772 772 773 776 777 779 781 783 784 785
794 792 790 788 785 783 781 779 777 775 772 770 768 766 764 762 760 758 756 756 754 753 751 750 750 750 750 749 749 750 749 739 728 729 730 730 731 730 732 734 735 739 740 742 743 745 750 754 756 756 760 761 757 757 757 757 759 760 760 757 757 759 761 761 762 764 764 765 767 768 770 773 774 774 776 777 775 774 773 772 774 776 778 780 781 783 784 785
793 791 789 787 785 782 780 778 776 773 771 769 767 765 762 760 758 756 754 753 752 752 750 749 749 749 750 749 750 751 742 731 728 729 729 731 731 730 733 733 735 737 738 740 741 744 748 751 752 752 757 758 756 756 755 759 761 757 756 756 756 760 763 763 763 764 765 767 768 770 775 775 774 774 777 778 776 775 773 773 775 777 779 781 782 783 783 784
793 790 788 786 783 781 779 777 774 772 769 767 765 763 760 758 755 753 752 751 751 750 748 748 748 748 750 748 751 751 735 727 729 728 729 730 730 730 732 732 734 735 736 738 740 743 744 746 747 747 752 755 754 756 756 758 758 754 756 757 758 761 763 763 764 765 766 768 768 771 777 777 774 776 780 778 775 775 774 775 777 778 780 781 782 783 783 784
792 790 787 785 783 780 778 775 773 770 768 765 763 760 758 755 752 751 749 749 748 748 747 747 747 748 749 748 752 747 730 727 729 727 729 730 730 730 730 732 733 734 736 738 739 739 739 741 742 746 752 754 753 756 755 753 753 754 755 759 762 762 763 763 765 766 766 769 769 769 776 778 775 777 780 777 776 776 775 778 779 779 781 781 782 783 783 784
791 789 786 784 782 779 777 774 771 769 766 763 761 758 755 752 750 748 747 746 746 746 745 745 747 747 748 750 748 737 727 728 728 727 729 729 730 730 731 732 733 734 735 737 739 737 738 740 741 748 752 751 755 758 754 750 753 755 755 762 767 765 765 765 765 766 766 770 769 768 778 783 779 779 779 776 776 776 777 779 780 781 782 782 782 783 783 784
791 788 785 783 781 778 775 773 770 767 764 761 758 755 752 749 747 745 744 744 744 744 744 744 746 746 748 747 737 728 727 728 727 727 728 728 730 730 731 733 734 736 736 737 738 738 740 740 742 747 747 749 755 755 751 751 753 756 757 763 770 772 771 765 765 767 767 771 768 768 784 789 782 780 779 777 776 777 779 781 781 782 782 783 783 783 783 784
790 787 785 782 779 777 774 771 769 765 762 759 756 753 750 746 744 742 741 741 741 742 743 744 745 746 748 741 728 725 727 726 726 726 726 728 729 730 731 732 734 735 737 738 739 739 739 740 742 745 745 748 751 749 752 756 756 759 762 766 774 779 774 766 765 768 769 772 767 769 786 790 783 781 778 777 776 777 780 781 781 782 782 783 783 783 783 784
788 786 783 781 778 776 773 770 767 764 761 757 754 751 747 744 742 739 739 739 740 742 742 744 745 746 748 739 726 725 726 725 725 724 725 727 727 729 730 732 733 734 736 738 739 740 740 740 744 749 748 746 747 753 759 760 761 765 768 773 778 779 776 770 765 766 768 771 769 772 785 788 783 780 777 777 778 778 780 781 781 782 783 783 783 784 784 784
788 785 782 780 777 774 771 768 765 762 759 755 753 750 747 744 741 739 739 738 740 742 743 746 746 746 748 738 726 725 725 725 724 724 725 726 726 728 729 731 732 734 736 737 738 740 740 742 746 749 749 749 753 758 764 767 767 770 772 774 777 777 778 774 767 763 764 770 773 775 782 785 781 779 777 777 778 780 781 782 782 782 782 783 783 783 784 785
787 784 781 779 775 773 770 767 764 761 757 754 751 749 747 744 742 741 740 740 742 742 744 745 745 747 742 730 727 728 725 724 723 724 725 724 726 727 729 731 732 734 735 736 738 740 741 744 749 750 751 756 758 760 770 777 773 773 775 774 776 777 777 775 769 764 763 769 775 776 779 781 779 778 778 777 778 781 782 783 782 782 782 782 783 783 784 785
785 783 780 777 774 771 768 765 763 759 756 753 750 748 747 745 744 744 742 743 743 744 746 746 746 750 741 728 729 729 724 724 723 723 724 723 724 727 729 731 732 734 737 740 741 743 745 748 752 755 757 760 761 763 774 775 768 769 772 772 774 775 775 774 769 763 764 769 774 779 781 779 778 779 778 777 778 780 782 782 782 782 782 782 782 783 784 784
784 781 778 775 772 769 766 764 761 758 754 751 749 748 746 746 746 745 744 744 745 744 744 744 743 744 738 729 728 726 723 724 723 722 722 722 723 726 729 731 732 735 742 748 748 747 748 752 757 762 762 761 760 761 763 760 758 762 765 767 771 771 771 769 764 758 761 770 774 778 780 777 777 778 779 778 778 780 781 781 782 782 782 782 782 782 783 783
783 780 777 774 770 767 765 762 759 757 753 750 748 746 747 749 749 748 746 744 742 739 737 738 737 734 731 728 725 724 724 723 723 722 722 721 722 726 730 732 736 740 745 751 752 747 747 758 763 761 758 755 753 753 753 755 757 760 764 767 769 771 769 763 760 757 757 767 774 775 776 775 774 776 778 778 778 780 781 781 781 781 781 782 782 782 782 782
782 778 775 772 769 766 763 760 758 755 753 751 748 747 750 752 753 753 749 742 736 734 734 732 732 731 727 725 725 725 727 726 723 722 722 721 722 728 734 736 742 748 747 748 752 747 750 762 760 750 749 748 748 749 752 758 759 760 765 768 769 770 766 758 757 757 755 763 773 774 776 775 772 774 777 778 779 779 778 779 780 779 780 780 780 781 780 780
781 777 774 771 767 764 761 759 756 753 752 751 750 750 751 753 753 753 752 747 737 731 732 730 730 729 724 724 725 725 731 732 727 721 720 721 724 731 737 738 745 750 747 748 753 756 761 763 750 742 746 747 747 748 751 757 759 762 765 768 767 764 762 757 756 759 757 762 772 774 777 777 772 772 775 776 776 775 774 775 777 778 779 780 779 779 779 780
780 776 773 769 765 762 759 757 754 753 752 752 752 752 751 752 751 750 752 752 742 730 729 729 728 727 725 725 723 725 731 734 731 724 717 721 727 731 736 740 744 748 750 751 754 763 767 754 740 740 744 746 749 750 751 755 759 762 765 767 766 762 763 762 761 764 761 762 770 773 777 778 774 773 774 774 773 772 772 772 774 775 776 777 777 777 778 779
778 775 772 768 764 761 758 755 753 752 752 751 751 750 751 751 750 750 750 750 743 730 724 723 722 722 721 719 719 724 729 729 729 723 715 720 728 730 733 737 743 749 750 749 751 759 756 740 734 739 741 744 750 752 754 758 761 762 763 765 762 760 764 765 765 766 764 765 767 771 782 780 774 775 773 771 772 772 771 772 772 772 773 774 775 775 776 777
777 774 771 767 764 759 756 754 752 752 751 749 749 749 750 749 748 749 748 749 746 732 722 720 719 717 713 715 717 719 725 725 722 718 713 716 724 729 733 733 739 747 748 748 753 756 748 735 733 740 742 744 748 752 754 756 761 763 758 757 756 755 761 766 766 768 775 779 767 769 787 785 776 777 772 770 774 773 771 772 771 770 771 772 773 773 774 774
776 773 770 767 763 757 755 753 751 753 751 749 748 748 749 748 747 747 748 756 751 732 723 722 720 714 709 715 716 716 729 726 712 710 712 714 716 722 732 734 735 741 742 746 751 751 742 733 733 738 741 744 748 751 749 750 762 765 752 746 749 750 756 765 765 767 780 783 768 766 782 787 781 776 769 769 773 772 771 771 769 768 769 769 770 770 771 772
774 772 769 766 762 759 757 754 753 753 750 748 747 747 747 746 746 745 750 766 755 729 723 724 720 713 708 712 711 719 735 724 708 709 709 712 713 716 730 736 735 736 735 742 752 746 736 734 736 736 739 746 751 749 745 746 759 760 745 742 748 748 752 760 761 765 773 775 772 770 774 785 784 773 768 769 771 774 773 771 768 766 766 766 766 767 768 769
772 770 767 764 761 761 759 756 755 752 748 746 745 746 745 744 745 744 757 771 749 722 720 719 714 709 708 711 709 715 723 715 716 717 705 707 713 717 730 733 733 735 731 740 752 742 732 734 735 735 740 746 744 739 737 740 751 750 742 744 749 749 752 756 759 765 771 773 778 777 774 787 787 771 770 773 772 774 772 767 766 763 762 762 763 764 764 766
770 767 764 761 758 758 757 756 753 749 745 744 744 744 742 743 743 746 766 768 738 717 717 714 711 710 712 716 715 714 714 713 719 715 704 709 712 714 727 727 728 734 731 735 743 736 730 729 728 731 738 738 734 733 733 736 743 743 743 747 750 753 756 758 762 764 770 778 780 777 775 786 786 769 770 777 773 770 766 761 760 759 759 759 759 762 762 765
767 764 762 758 755 754 755 753 748 744 744 743 744 743 741 743 746 760 777 761 731 722 717 713 715 716 717 723 724 720 718 716 714 711 710 714 713 713 719 720 723 732 734 735 736 731 727 725 725 727 728 728 730 733 735 735 737 738 743 748 751 757 758 762 767 764 776 785 777 776 775 780 786 771 765 769 760 755 756 756 756 756 757 757 757 759 760 762
763 760 758 755 753 753 753 750 743 741 743 743 743 741 741 746 755 773 772 743 729 728 720 718 720 718 720 725 726 723 722 720 715 715 719 718 719 721 723 725 729 736 740 738 735 732 728 726 727 722 720 725 729 734 736 735 735 737 743 749 757 765 766 769 772 770 785 790 777 779 779 780 789 773 756 756 748 745 749 749 750 751 753 754 754 756 757 759
759 756 754 751 749 749 749 745 741 742 742 742 743 741 745 756 765 770 755 734 736 737 727 726 724 720 724 724 723 723 723 723 717 718 723 724 727 727 728 732 735 743 753 749 742 736 728 725 726 722 720 722 728 739 745 741 739 741 746 754 766 780 783 784 787 786 791 788 777 780 780 782 785 763 747 749 745 743 744 741 742 745 747 750 751 753 755 758
756 752 748 746 745 744 743 741 741 742 741 742 744 741 748 765 768 759 748 740 742 736 728 728 724 723 728 726 723 721 722 724 719 719 722 725 730 729 728 729 729 738 750 753 750 743 735 729 726 726 725 720 723 738 749 748 746 746 748 755 768 786 794 796 801 800 793 784 778 779 778 780 774 754 744 743 739 739 739 738 738 739 742 745 747 750 753 756
753 749 745 743 742 741 740 741 741 741 742 742 743 746 756 767 761 751 749 746 740 732 728 729 726 725 728 726 722 718 721 723 720 721 724 727 733 733 731 730 728 730 738 749 753 750 752 746 730 726 726 720 721 729 734 738 744 747 745 750 761 771 779 786 790 788 786 785 782 777 776 776 766 750 743 740 737 738 738 737 738 738 740 743 746 751 753 755
750 747 745 743 742 741 740 741 741 741 742 742 745 753 761 763 757 752 751 745 739 735 731 728 727 727 727 725 721 715 717 721 720 722 726 728 732 732 729 728 728 729 735 749 753 751 759 751 726 719 721 718 722 723 722 731 744 750 746 750 757 754 757 777 788 784 783 784 783 779 774 768 758 744 740 741 740 739 739 739 740 740 743 745 747 750 752 754
749 745 744 743 742 742 740 740 741 741 742 743 750 757 758 754 752 751 746 740 740 739 735 730 727 729 731 728 725 719 715 718 722 724 728 730 729 728 726 723 723 725 728 740 749 749 755 745 723 719 720 717 720 721 720 728 740 749 751 750 751 745 746 769 789 792 787 781 782 785 773 760 754 746 740 741 740 740 742 741 741 743 744 746 747 749 750 752
748 745 745 744 742 742 741 741 742 742 742 745 753 757 754 748 744 744 740 737 738 737 739 739 732 733 738 735 730 725 720 720 722 725 731 733 729 725 723 720 719 720 718 726 737 741 746 742 726 722 724 719 718 719 721 723 729 744 752 744 744 747 747 756 772 785 789 783 782 785 777 766 763 755 743 740 741 743 744 743 743 746 746 746 747 747 749 750
750 748 746 744 743 743 742 742 742 742 743 749 756 756 753 748 741 738 738 737 737 737 740 744 737 734 740 740 734 728 725 726 726 727 731 734 729 721 718 718 716 716 713 717 728 733 739 744 732 723 727 724 718 722 730 728 725 733 738 734 740 752 754 756 766 774 781 788 786 782 781 775 768 758 746 741 742 743 746 746 745 745 745 745 746 747 748 749
752 750 747 746 744 743 744 744 743 743 746 753 759 756 752 748 739 735 736 736 738 739 741 743 739 736 737 737 735 730 728 728 728 729 730 732 729 720 716 716 714 714 713 714 724 730 735 746 741 727 725 726 723 729 738 738 731 730 732 734 739 748 753 757 763 765 770 785 791 782 778 772 762 755 749 743 741 742 745 745 742 743 743 743 744 745 747 749
753 751 749 746 745 744 745 744 744 746 750 756 759 753 750 747 739 734 734 735 736 736 739 741 739 739 736 734 734 732 729 729 728 729 729 728 727 720 714 713 712 715 715 716 723 728 734 747 747 733 727 731 733 731 732 733 734 735 738 743 744 747 754 756 762 768 766 774 785 786 781 770 755 751 750 744 742 743 743 741 739 741 741 741 742 743 745 746
754 753 751 746 745 746 745 746 750 753 755 758 758 754 750 745 740 736 732 733 733 731 733 736 736 738 737 735 734 731 729 729 727 727 727 725 726 722 714 711 712 714 718 720 723 726 733 744 746 739 734 735 734 728 726 725 728 730 733 739 743 746 751 757 767 774 769 770 778 781 781 769 751 749 751 747 745 744 742 741 740 740 738 739 740 740 742 743
755 754 751 747 746 746 746 750 756 759 758 755 753 752 748 743 742 739 733 733 734 730 731 733 733 735 735 733 733 730 729 729 727 727 727 725 725 722 715 712 712 713 716 723 725 723 728 737 743 742 738 735 731 728 729 728 727 728 732 739 743 741 743 750 761 766 768 778 780 775 777 766 749 749 753 751 749 744 741 741 740 739 738 737 737 737 739 740
759 756 749 746 747 746 749 755 758 758 756 752 750 748 746 744 743 739 735 734 735 732 733 733 731 731 730 730 731 730 729 729 728 727 726 726 723 718 715 713 712 713 715 720 724 722 727 738 744 744 739 732 726 725 728 728 727 729 737 743 743 740 741 744 750 754 762 775 774 770 777 766 748 750 754 751 749 744 741 741 739 739 739 738 738 737 737 739
766 762 753 748 746 746 753 760 760 759 756 753 751 746 743 743 741 740 740 738 735 734 735 733 731 730 730 730 731 732 731 730 729 727 726 726 722 715 714 712 711 713 713 715 718 717 728 743 748 751 755 750 742 739 735 731 730 734 742 748 744 742 744 745 750 751 757 771 770 766 775 765 748 752 754 751 751 746 745 746 742 740 738 738 739 738 738 739
765 762 757 751 746 747 755 760 761 761 759 757 754 750 747 744 740 740 740 739 736 735 736 735 731 730 731 732 733 733 732 730 730 730 728 727 721 714 713 713 712 713 711 711 709 711 727 742 744 749 762 766 760 756 749 741 739 741 746 749 747 745 741 743 749 749 756 773 772 763 766 757 747 756 759 757 759 755 752 752 747 744 741 738 739 739 740 742
763 760 758 754 750 751 757 760 762 762 761 761 758 753 753 750 744 739 737 738 737 735 736 736 732 732 734 735 735 735 735 733 732 733 735 733 726 719 715 714 714 713 710 710 711 715 730 744 745 743 748 752 750 750 751 746 743 746 748 749 752 753 746 742 746 748 756 770 769 760 759 755 756 768 769 765 767 764 760 757 752 749 745 741 740 740 741 743
766 765 766 762 757 757 759 761 764 764 763 764 761 756 756 755 750 743 738 738 739 737 738 737 736 739 742 741 739 739 739 737 734 736 740 739 732 725 718 714 716 713 709 711 714 718 728 741 749 748 745 749 750 750 751 749 749 756 757 753 755 755 746 739 744 751 755 762 764 762 763 765 771 778 775 771 771 768 764 761 757 755 750 744 741 741 742 743
767 769 771 769 765 764 762 762 765 765 763 762 761 758 757 756 754 751 746 742 740 739 741 742 743 745 746 744 743 744 744 742 740 742 743 741 737 731 721 715 715 714 713 714 716 718 726 739 748 749 748 752 755 754 752 753 759 769 770 766 762 756 747 745 757 767 760 754 760 766 771 776 781 781 777 774 773 770 768 765 761 758 754 749 745 744 745 746
769 769 770 770 769 768 767 766 767 765 762 761 760 759 760 759 757 756 752 748 746 744 746 750 750 747 746 744 743 749 752 749 749 750 746 744 743 738 732 725 719 717 716 717 719 720 728 742 748 744 745 750 753 755 755 755 761 769 774 777 774 769 766 766 773 777 768 763 770 774 777 782 783 780 778 776 774 772 769 766 762 760 759 756 753 752 752 751
770 770 771 770 769 769 769 768 767 763 761 762 762 761 762 761 759 758 754 753 754 751 749 753 753 748 747 746 745 751 754 752 754 753 747 748 747 741 740 737 730 726 721 721 725 721 725 745 752 743 744 752 753 755 758 758 760 766 773 779 778 775 776 776 778 778 772 774 779 776 776 781 781 779 779 776 774 772 769 767 766 766 765 762 760 760 759 757
773 773 773 771 769 769 769 768 768 765 763 765 766 764 763 762 762 761 756 753 755 755 753 755 753 749 747 746 746 750 752 751 752 749 745 747 746 741 740 739 737 736 730 727 729 724 725 745 753 745 748 756 755 758 762 758 754 758 768 778 780 775 774 776 780 780 778 779 779 774 776 783 782 779 779 777 775 774 774 774 773 771 769 767 766 765 764 763
773 773 774 773 770 770 770 769 768 767 767 768 768 765 764 764 762 761 758 755 753 753 754 754 752 749 749 748 746 747 748 747 746 743 741 741 741 740 739 738 738 741 739 733 734 735 735 741 748 748 753 761 764 766 768 761 756 761 771 780 783 780 779 781 781 782 783 784 781 778 780 784 783 780 780 780 778 778 779 779 778 776 774 772 771 770 769 768
Wind_Speed
20 20 20 21 22 23 23 24 25 25 26 27 27 27 26 26 25 25 24 24 24 23 21 19 17 16 14 12 12 11 12 12 10 6 8 13 17 13 11 8 5 3 4 10 11 9 7 4 3 3 3 1 1 1 1 2 2 3 3 2 1 2 3 4 6 6 3 2 5 4 4 7 3 1 2 2 5 3 3 3 1 3 3 3 2 5 12 11
21 21 21 21 22 23 24 24 25 26 27 27 28 28 27 26 26 25 24 24 24 23 21 19 18 16 13 11 11 10 11 12 9 10 12 11 11 9 10 13 11 8 6 10 12 10 7 4 2 3 3 0 1 1 1 1 2 3 3 2 2 4 4 5 6 6 3 3 5 5 4 6 4 3 3 3 2 1 4 3 2 3 3 5 4 8 11 11
22 22 22 22 22 23 24 25 26 26 27 28 28 28 28 27 26 25 24 24 24 23 21 19 17 15 11 10 10 10 10 9 6 8 7 7 4 7 9 12 13 11 9 7 8 9 9 8 5 5 2 2 2 1 1 1 2 2 3 1 4 5 4 4 5 5 3 5 7 6 4 4 2 2 2 4 3 1 3 2 3 5 5 5 5 9 11 12
23 23 22 22 22 23 24 25 26 27 28 28 29 29 28 28 27 25 24 23 23 23 21 18 16 14 10 8 8 8 8 4 3 5 5 7 1 8 12 12 12 12 10 5 2 6 12 11 5 4 3 3 3 1 1 1 2 1 3 3 5 4 3 4 4 3 1 5 7 6 4 4 2 1 2 6 5 1 4 4 5 8 10 8 5 7 10 10
23 23 23 23 23 24 25 26 27 28 28 29 29 30 29 28 27 26 24 23 23 22 21 18 14 12 8 6 6 7 5 3 3 6 5 3 2 6 12 12 12 10 6 1 5 10 11 8 5 4 2 3 2 2 1 2 2 2 2 5 5 4 2 3 3 4 4 6 6 7 5 3 2 2 3 6 4 3 4 4 5 8 10 10 7 7 8 7
24 24 24 24 24 25 26 27 28 29 29 30 30 31 30 29 28 26 24 23 22 22 21 17 13 10 7 4 4 5 2 1 6 6 4 1 2 6 11 11 11 10 6 4 6 7 5 5 4 0 2 2 1 1 3 1 3 2 3 3 3 4 2 1 4 4 5 8 6 6 4 3 4 2 2 4 1 4 3 4 6 7 9 11 8 6 6 6
25 25 25 25 26 26 27 27 29 30 31 31 31 31 31 30 28 27 24 23 21 21 20 15 11 7 4 2 2 3 2 4 9 5 2 1 3 6 12 12 11 10 9 7 6 6 5 5 3 4 1 3 2 3 2 2 4 3 2 4 2 2 2 2 5 3 5 7 5 5 4 4 5 3 2 0 2 2 1 5 8 8 10 11 8 5 6 5
26 26 26 27 27 28 28 29 30 31 32 32 32 32 32 31 29 27 24 22 20 20 18 13 9 4 3 1 1 3 0 6 8 5 6 4 5 7 12 14 13 11 10 9 8 6 5 5 5 3 1 4 3 2 2 3 3 2 3 3 1 2 3 4 5 5 6 6 5 6 5 3 3 4 3 2 1 2 4 8 9 9 9 8 6 5 5 5
27 27 28 28 29 30 30 31 31 32 33 33 33 33 33 32 29 26 23 21 19 18 16 11 6 3 3 1 2 3 3 5 7 5 9 8 9 10 12 14 16 15 12 11 10 7 5 4 5 4 3 4 2 1 2 3 1 4 4 2 3 3 4 5 5 5 5 4 5 7 5 1 2 1 3 3 0 3 6 9 8 9 8 6 5 5 5 5
28 28 28 29 30 30 31 32 32 33 34 34 34 33 33 32 29 25 21 20 18 17 14 8 5 4 5 2 4 1 5 3 7 6 9 10 12 13 13 14 19 20 14 11 11 10 7 5 4 4 4 2 1 1 2 3 1 3 2 2 5 5 4 4 4 4 4 3 4 6 5 1 2 1 1 1 1 3 8 9 7 8 7 5 4 4 4 4
29 29 29 30 30 31 32 32 33 34 34 34 35 34 34 33 28 23 20 18 17 15 11 6 5 6 6 2 4 2 5 3 6 6 7 12 13 15 16 15 19 21 16 10 13 17 13 8 6 4 2 1 1 1 2 2 2 2 4 5 6 5 4 4 5 4 3 3 2 7 6 1 3 2 1 2 3 4 8 8 6 7 5 5 4 3 4 3
29 30 30 31 31 32 33 33 34 34 35 35 34 35 35 31 25 22 20 17 15 12 8 6 6 9 4 2 4 8 6 5 8 8 5 10 12 14 16 15 16 19 16 9 11 19 16 9 8 3 2 2 1 0 1 2 2 1 4 5 4 6 3 1 4 3 2 2 3 7 6 3 3 3 2 3 5 5 8 7 6 6 4 4 3 3 3 3
30 31 31 32 32 33 34 34 35 35 35 35 35 36 34 29 24 21 19 15 12 8 7 5 8 10 4 0 7 8 7 8 10 9 6 9 12 12 13 14 14 15 14 7 3 9 13 10 8 4 3 4 1 1 2 2 2 1 3 5 3 5 3 3 3 2 3 2 4 5 3 4 5 3 1 4 6 7 7 6 5 5 4 3 2 3 3 3
32 32 32 32 33 34 34 35 35 36 36 36 36 36 32 28 23 18 15 11 8 7 7 7 10 9 3 5 8 7 10 11 11 11 9 9 12 11 9 11 12 13 12 6 2 4 7 11 6 2 1 2 1 1 3 4 3 2 2 3 3 2 3 3 3 4 3 0 2 5 3 3 5 3 2 3 5 8 8 6 5 5 4 3 3 3 3 3
33 33 33 33 33 34 35 35 36 36 37 37 36 34 29 23 17 13 8 6 7 8 8 9 11 6 1 7 9 6 7 8 12 14 12 12 12 8 7 10 10 11 12 9 4 4 2 9 4 1 2 1 3 3 3 4 4 3 2 2 2 2 3 4 3 5 4 2 1 4 2 3 4 4 3 3 4 6 7 6 5 5 4 4 3 3 3 3
34 34 33 33 33 34 35 36 37 37 37 37 35 30 22 15 12 7 1 6 8 9 9 8 8 5 0 4 4 3 4 5 8 10 11 14 14 8 5 9 7 6 9 8 6 4 2 6 2 1 2 1 4 4 3 4 4 3 2 2 2 2 1 2 3 5 5 5 0 1 2 2 2 4 4 4 5 5 5 5 5 5 4 4 4 3 3 2
35 34 34 34 34 36 36 36 37 37 38 36 32 24 13 9 9 6 7 10 11 11 8 4 5 3 3 4 1 3 4 3 4 6 6 10 15 12 4 5 4 5 5 3 4 4 2 2 0 1 1 2 2 3 3 3 3 4 2 0 2 2 2 1 3 4 6 6 3 2 3 3 3 3 5 5 6 5 5 5 5 5 4 4 4 3 3 3
36 35 35 35 36 37 36 38 37 37 37 33 27 17 6 7 7 8 12 12 10 7 4 1 3 2 4 4 2 3 4 5 8 9 7 6 11 14 4 2 4 6 4 3 2 2 0 1 1 1 3 3 2 5 2 3 3 2 1 1 2 1 2 3 3 4 8 5 4 5 2 4 3 2 5 5 6 6 5 5 4 5 5 4 4 4 4 4
36 36 36 37 38 37 37 38 36 37 36 29 22 11 2 5 5 6 7 7 4 2 1 2 3 3 3 3 3 5 7 9 11 8 4 2 6 9 3 2 3 4 2 2 1 2 1 2 3 1 2 3 2 5 6 7 5 5 4 3 3 2 3 5 4 5 10 6 4 7 4 4 3 4 6 5 5 6 6 5 4 4 4 4 5 4 5 5
37 37 37 39 39 37 38 37 36 37 31 23 21 10 1 4 3 1 3 1 4 4 3 4 6 4 4 2 1 6 9 8 5 2 2 3 7 7 4 2 2 2 1 2 2 2 2 2 2 4 7 8 8 9 8 4 5 4 3 2 3 3 4 4 4 5 9 6 4 7 5 4 5 5 7 6 5 6 6 6 6 5 5 5 5 5 6 6
38 37 38 40 38 38 38 35 37 34 21 17 18 6 2 2 2 2 5 5 7 7 8 8 8 9 8 4 3 6 5 4 3 4 4 4 8 6 1 2 3 1 2 3 2 1 3 2 8 10 10 9 8 8 6 3 4 4 3 0 2 3 5 5 3 6 8 5 2 5 5 4 5 5 5 5 7 8 9 8 8 7 6 5 6 7 6 5
38 37 39 40 38 38 36 35 36 25 12 14 14 3 2 3 1 3 2 4 8 6 9 9 7 10 9 8 9 2 2 2 6 6 5 6 6 3 1 3 4 3 1 4 3 2 2 4 13 10 5 5 6 6 6 3 4 3 3 0 3 2 3 4 1 4 6 2 1 5 6 3 3 4 5 7 8 8 8 9 8 7 6 6 7 7 6 5
37 38 40 38 38 38 35 36 31 13 9 17 13 2 2 3 6 2 5 1 7 5 6 7 6 7 6 6 8 6 4 3 4 6 6 9 3 4 5 3 5 4 3 5 4 3 2 7 11 5 6 6 6 5 6 4 2 3 3 1 3 3 0 2 3 4 5 2 2 6 4 2 2 2 4 7 8 5 6 8 6 6 7 8 7 6 6 7
37 39 38 38 39 37 35 35 19 4 15 23 11 4 3 7 11 1 5 1 5 5 5 7 5 5 6 5 9 10 3 4 4 5 7 11 3 2 5 4 5 4 4 7 7 6 8 9 3 4 7 8 5 4 5 5 3 3 5 4 3 1 1 2 1 4 3 2 2 6 4 4 2 4 4 5 5 5 5 6 7 7 7 7 6 6 7 8
38 38 37 38 37 36 36 26 6 6 24 20 4 4 2 11 11 2 4 2 3 6 4 4 3 5 7 5 10 11 2 3 7 6 7 10 7 3 2 3 4 5 7 7 6 6 11 9 2 3 4 6 5 5 6 7 3 2 4 6 6 4 6 4 5 5 4 3 2 4 3 5 3 4 7 4 4 7 5 6 9 8 7 6 7 7 8 8
39 37 37 37 36 38 31 12 5 16 22 7 4 2 8 12 10 2 4 4 3 5 2 1 1 6 7 6 7 6 4 3 8 9 8 9 8 5 2 1 1 4 6 6 4 3 6 5 3 6 6 6 6 4 5 8 4 2 4 9 8 8 9 7 5 4 3 2 4 3 4 3 4 4 8 6 7 9 6 7 10 8 7 7 7 8 7 7
39 37 37 36 35 34 19 7 15 18 9 2 3 9 11 11 7 4 3 5 3 3 2 1 0 5 7 6 8 8 3 5 3 5 9 11 7 3 3 3 1 2 4 4 0 3 4 1 1 5 3 4 5 4 6 9 7 2 5 8 8 7 9 8 5 4 2 2 3 3 4 1 3 5 6 6 8 8 7 9 10 8 8 8 8 8 8 8
38 37 37 35 34 27 13 12 15 9 4 6 10 12 11 11 4 4 3 3 2 1 2 2 1 4 2 4 9 6 3 4 2 2 6 12 9 2 3 7 4 4 3 5 3 5 3 2 3 4 2 3 5 5 8 12 6 4 3 7 6 5 5 6 5 3 1 2 3 4 3 2 4 5 3 3 8 8 9 11 11 10 10 9 9 9 9 9
39 37 37 36 34 24 11 10 10 7 9 11 12 13 12 8 1 3 4 1 2 1 1 0 1 2 2 3 5 2 2 0 3 3 1 7 7 2 4 7 6 5 2 3 5 6 3 4 6 6 3 5 5 4 9 12 5 3 7 9 6 6 5 5 5 3 3 3 3 5 3 2 4 5 2 3 5 8 10 10 10 10 10 10 9 8 8 7
39 38 38 35 30 20 7 11 16 12 10 11 12 13 10 4 3 4 1 2 2 2 0 0 0 1 4 5 2 3 2 2 1 1 3 2 1 2 2 3 5 4 2 2 3 6 4 2 3 4 4 5 3 2 4 8 7 7 7 7 7 6 5 4 2 3 4 2 5 6 5 5 1 5 2 3 5 7 9 7 7 7 8 9 9 8 8 8
40 39 37 32 25 15 5 8 10 4 2 9 13 10 5 2 4 4 3 3 2 2 3 2 1 2 4 5 3 2 2 3 2 1 1 1 3 3 1 0 3 2 3 5 3 6 6 2 2 2 2 5 6 5 4 4 7 7 5 5 5 4 4 4 3 3 3 3 6 4 2 5 1 5 5 5 6 5 8 8 9 10 9 9 8 8 9 8
41 38 33 27 19 13 11 6 4 4 6 11 9 4 2 2 1 2 3 2 1 2 3 2 2 2 2 1 3 4 3 2 2 3 3 1 2 3 3 4 3 1 3 3 3 5 5 2 2 3 1 5 6 6 5 4 4 5 5 5 5 2 3 2 3 1 1 3 3 1 3 3 4 7 6 7 8 7 8 10 11 11 10 9 8 8 8 7
40 35 27 19 12 11 11 6 4 6 8 7 3 4 5 3 2 3 2 3 0 2 2 2 4 3 1 1 3 4 3 2 4 3 3 3 3 4 3 3 6 3 1 3 1 4 4 5 4 3 1 2 6 6 3 0 1 4 5 5 4 2 3 1 3 1 2 3 2 1 2 1 4 5 5 8 9 8 9 9 10 11 11 10 9 8 8 8
37 30 20 12 9 8 7 3 1 1 2 2 3 4 4 2 3 2 1 2 2 3 3 2 5 4 2 2 3 3 3 3 3 3 3 3 2 3 3 2 3 5 3 2 0 1 1 5 2 2 2 2 4 4 5 5 4 3 3 5 5 4 3 2 3 2 2 2 2 3 2 2 1 2 5 7 7 5 7 6 6 7 7 6 6 6 7 8
33 23 12 8 9 9 5 3 4 2 1 3 5 4 3 3 3 1 1 3 2 4 5 3 2 3 3 2 3 1 2 3 2 4 3 3 4 4 3 4 4 4 4 2 2 1 1 4 7 4 2 5 5 3 4 7 4 0 2 5 2 4 5 1 2 4 3 1 1 2 2 3 4 4 5 4 3 1 3 4 4 4 4 5 6 7 8 8
31 18 7 8 11 10 6 3 7 4 2 4 5 2 3 2 2 1 2 2 2 3 6 5 3 4 4 4 4 5 4 1 2 3 1 2 3 4 3 4 5 6 6 4 3 1 2 4 7 3 1 4 6 4 3 4 3 1 2 3 4 4 7 4 1 0 3 3 1 1 2 5 2 2 5 6 6 5 4 4 4 4 6 7 7 7 8 8
31 17 4 9 13 8 4 4 6 4 3 5 4 3 3 2 2 3 1 2 2 2 3 3 2 2 2 3 3 5 4 1 2 2 1 2 2 4 3 2 4 8 8 4 2 3 3 3 7 2 1 2 2 5 5 4 5 5 2 5 3 2 5 4 2 3 4 2 2 2 1 5 2 1 5 6 5 4 3 4 3 4 5 7 7 7 8 8
24 13 4 10 12 4 2 4 4 3 4 4 2 2 1 1 2 2 1 1 2 2 3 0 2 1 2 1 3 4 2 1 2 2 3 1 2 4 4 2 4 7 8 5 2 3 3 1 7 3 2 2 3 7 4 5 3 5 4 4 3 2 1 1 2 0 1 1 3 4 2 2 1 1 4 2 2 3 3 4 5 5 7 7 7 7 7 7
13 5 2 10 11 0 4 2 1 4 5 3 0 1 1 2 4 3 2 1 1 0 1 1 1 2 2 1 2 4 2 2 3 2 3 2 3 3 2 2 3 4 6 7 5 2 2 2 5 5 1 2 4 4 2 4 3 3 3 2 2 2 3 2 2 2 2 3 1 2 3 1 3 4 3 4 6 6 5 5 6 8 8 8 7 7 7 7
4 2 0 9 10 2 4 1 3 5 4 2 3 2 2 2 5 5 4 2 1 1 1 2 1 1 3 2 2 3 2 1 3 3 2 2 3 4 3 3 2 1 2 5 4 1 3 3 3 5 4 2 1 2 5 7 3 2 3 2 0 2 2 2 1 2 3 4 2 1 2 3 5 4 4 6 7 5 6 6 7 8 9 8 8 7 8 8
2 3 1 9 6 5 3 4 3 3 2 1 1 2 2 2 3 6 4 4 3 3 2 3 2 2 2 2 2 2 1 0 2 3 2 2 2 2 2 2 3 2 4 5 3 2 2 2 3 2 4 0 4 4 4 7 7 5 4 4 3 3 4 3 1 1 1 3 2 4 2 5 5 2 3 6 5 5 6 5 6 7 9 9 8 8 9 9
3 2 2 8 2 8 3 4 1 1 2 1 1 3 3 3 3 5 4 1 3 3 0 1 3 3 4 3 2 3 1 1 0 1 1 2 2 1 3 3 2 3 4 4 3 3 3 4 2 1 3 5 7 5 1 4 6 6 3 3 4 3 4 5 3 3 1 2 1 4 3 4 5 2 4 5 5 6 5 6 6 6 7 8 9 9 9 9
2 2 3 8 2 7 4 4 2 3 0 3 3 3 3 2 2 3 3 2 1 1 1 1 3 2 2 2 1 1 0 0 0 1 0 1 1 2 6 6 1 4 5 2 2 0 2 4 2 2 4 5 6 4 3 3 6 7 2 1 4 3 3 5 5 4 3 1 1 4 2 4 5 4 5 5 5 5 3 3 6 6 5 5 6 7 8 8
0 3 4 7 5 3 3 2 2 3 3 4 4 3 2 2 1 3 3 3 4 1 1 2 1 1 1 1 2 1 1 0 1 2 0 1 0 3 6 8 2 3 2 3 4 2 1 1 3 2 4 5 5 5 5 4 3 3 1 1 2 4 5 3 2 4 3 3 4 5 1 5 4 4 8 10 11 10 9 8 5 5 5 5 5 6 6 7
1 1 3 7 8 4 3 2 2 1 3 4 4 4 5 2 2 3 2 2 4 2 0 2 2 1 2 3 3 2 2 1 1 2 2 1 3 3 5 9 5 1 0 1 3 3 3 2 3 4 3 2 2 1 3 2 1 2 1 4 3 5 6 3 2 4 2 3 3 4 4 5 5 8 12 13 13 12 12 12 10 7 5 5 5 4 3 2
1 1 2 6 7 5 2 1 3 1 1 3 3 3 4 3 4 4 2 2 5 5 2 2 3 2 4 5 4 4 5 2 1 3 4 4 4 3 5 7 5 5 4 6 8 4 4 3 2 6 6 6 6 5 5 2 2 0 2 5 5 2 3 4 4 2 3 3 2 3 5 1 6 11 13 12 12 11 11 12 11 10 8 6 3 3 3 3
2 1 1 2 3 3 3 3 4 2 1 1 1 3 4 3 4 5 3 2 4 5 3 3 5 5 3 4 3 3 5 4 4 4 3 4 3 4 7 5 4 9 7 4 5 3 5 4 1 4 4 2 5 4 4 3 5 2 1 4 6 5 4 5 4 2 4 6 1 5 3 4 5 9 11 12 10 8 9 11 11 9 9 7 2 3 5 5
1 0 1 1 1 1 1 3 4 3 3 1 1 2 4 5 4 3 4 3 4 5 4 4 7 6 4 2 2 3 5 5 5 4 3 5 4 5 8 4 3 9 7 3 3 4 6 2 0 3 4 5 3 3 3 5 5 3 4 4 5 6 6 6 3 2 2 5 4 3 5 5 4 7 9 10 9 7 7 9 8 8 10 9 7 6 4 3
1 1 1 1 1 2 2 3 4 4 4 2 2 3 4 5 5 3 2 3 5 5 4 3 6 7 6 4 4 3 4 3 3 4 3 4 5 4 5 4 4 7 7 5 4 3 5 2 0 3 4 8 9 8 6 6 5 5 8 7 6 8 8 7 3 2 3 5 4 7 10 6 3 5 7 8 7 5 5 7 10 12 13 12 11 10 8 7
1 1 2 2 3 1 2 2 3 2 3 4 2 3 3 4 5 4 3 2 3 5 4 3 5 6 4 5 5 4 2 2 0 4 2 3 5 3 2 2 3 7 7 4 3 2 4 2 2 2 5 6 8 9 8 6 5 6 8 8 7 7 7 6 4 3 5 6 4 7 9 6 3 5 6 6 6 6 8 12 13 13 13 13 13 12 11 10
1 1 1 3 2 3 2 2 2 4 3 4 2 2 3 3 3 3 3 2 2 2 4 4 6 5 3 5 6 3 1 2 5 8 5 2 3 2 2 2 2 6 7 4 3 4 4 3 1 4 5 2 6 9 10 8 5 6 7 9 7 6 5 5 5 5 4 3 3 5 6 2 3 4 5 7 9 12 13 13 12 11 13 14 13 13 12 11
2 0 2 3 1 3 2 2 3 4 1 2 2 2 2 3 5 2 1 2 3 3 3 3 4 3 3 5 6 5 5 6 8 9 7 6 6 4 4 5 4 2 3 2 3 2 3 4 2 4 4 2 4 7 7 7 6 3 4 4 4 3 4 5 6 7 4 3 3 3 3 0 3 3 5 9 11 13 13 12 11 10 11 12 13 13 12 11
Wind_Direction
353 353 351 352 353 355 356 356 357 357 357 356 356 355 353 352 352 352 349 349 349 342 338 336 334 332 325 316 311 310 310 299 291 267 241 271 278 257 234 216 182 201 178 165 164 140 112 114 170 156 128 154 136 197 162 121 108 78 100 122 175 193 198 195 188 192 186 186 176 182 152 122 139 162 131 70 58 80 83 30 12 37 38 124 161 164 164 185
354 353 351 350 351 352 352 353 354 354 354 354 354 353 351 350 348 349 347 345 347 343 337 333 333 332 323 315 312 318 314 302 291 259 259 285 287 258 225 219 225 236 195 164 176 163 111 92 160 113 89 16 267 254 132 130 133 118 124 137 206 202 212 209 190 191 178 170 155 152 145 118 141 163 122 108 70 68 94 47 41 69 70 94 123 146 154 168
355 354 352 350 349 350 350 350 351 351 351 351 351 350 349 347 344 344 343 342 343 342 337 330 333 331 323 315 317 324 313 308 299 264 293 343 277 216 189 198 213 223 215 193 199 177 121 106 127 118 67 321 273 285 72 134 180 162 119 143 238 212 229 246 204 208 193 155 134 134 137 95 131 165 93 124 121 115 151 149 127 143 148 128 133 138 146 156
354 353 352 350 348 348 347 347 348 348 349 349 348 348 346 344 342 340 340 340 339 340 335 329 331 329 324 318 323 326 317 328 287 273 339 1 11 172 171 179 192 207 217 221 195 134 102 87 74 57 41 311 307 18 186 216 184 154 127 182 232 188 218 258 202 208 167 135 129 122 108 97 167 150 100 129 116 278 224 212 175 158 155 146 144 138 142 145
354 352 351 350 348 346 345 345 345 345 346 346 346 345 344 341 339 336 335 336 336 337 333 328 329 328 323 318 330 325 335 37 278 296 352 358 62 152 169 169 183 199 196 130 77 89 80 80 64 23 356 269 321 32 247 229 127 151 206 202 207 156 199 255 163 141 115 103 104 115 124 141 146 91 126 133 128 227 220 210 184 155 150 147 146 141 139 138
352 351 350 348 346 345 343 342 342 343 342 342 343 341 341 339 336 333 331 332 332 332 329 324 325 326 315 315 341 326 356 67 275 297 359 103 112 141 160 167 175 181 170 115 95 97 79 87 97 245 259 282 252 200 250 294 98 147 266 256 227 196 217 253 122 129 124 111 114 135 144 122 101 89 147 135 185 252 218 163 149 140 141 139 136 136 141 149
350 349 348 346 345 343 341 340 340 340 339 339 339 338 338 336 333 330 327 327 327 326 326 320 320 320 304 316 340 355 88 255 275 276 291 148 154 151 153 166 163 167 175 150 132 129 112 107 152 195 161 315 241 207 239 32 65 108 258 283 265 199 175 108 118 123 116 118 139 137 108 110 127 139 136 123 278 273 136 121 121 123 126 128 130 137 153 167
348 347 346 344 343 341 340 338 337 337 337 337 336 336 335 333 329 326 323 322 321 321 320 313 314 302 265 271 277 347 341 257 290 266 232 187 189 180 154 161 160 166 172 164 170 149 126 146 188 171 55 277 208 159 161 70 32 121 218 257 82 77 101 100 102 101 98 106 126 111 99 152 179 142 112 332 336 126 125 113 112 116 118 126 142 152 161 173
347 345 344 343 341 340 338 337 337 336 335 335 335 334 332 330 326 322 319 317 316 315 312 306 300 251 203 180 73 345 263 256 326 285 219 197 207 194 165 167 167 171 176 182 184 155 161 187 192 183 191 232 178 141 144 92 315 202 206 225 118 94 105 106 92 97 99 106 121 103 82 136 260 47 59 356 352 148 119 108 114 118 124 138 155 168 169 180
346 344 344 342 341 340 338 337 336 336 335 334 333 332 330 328 323 317 314 312 311 307 303 294 267 197 181 175 76 0 269 296 338 290 226 208 208 193 181 183 174 173 176 184 179 163 185 190 165 170 172 206 169 153 132 121 208 181 166 73 101 113 110 106 103 111 106 97 122 111 95 104 290 350 74 20 170 152 110 104 116 120 138 154 158 179 172 183
345 345 344 343 342 340 339 338 337 337 336 334 333 331 329 326 319 313 310 307 305 300 289 269 231 185 175 140 111 207 268 331 348 322 241 216 210 203 199 195 184 179 171 170 188 191 197 182 140 119 148 213 172 160 237 190 112 110 124 61 44 72 84 97 111 137 118 74 115 113 99 42 341 358 218 183 148 139 116 112 121 123 145 159 155 176 164 178
344 344 344 343 342 340 340 338 338 338 336 335 332 330 329 323 316 310 307 303 299 290 264 239 195 174 153 91 202 230 259 299 318 329 275 218 211 214 213 207 196 189 178 172 207 209 207 184 142 138 197 156 116 316 234 182 94 108 120 82 14 31 48 130 116 152 126 101 164 115 72 349 324 310 266 170 136 123 118 121 131 133 149 157 158 170 160 170
342 342 342 341 340 339 339 338 338 338 336 335 332 331 329 320 315 309 301 297 289 265 230 207 181 172 139 231 235 250 277 286 293 303 275 223 213 217 220 219 213 204 196 189 227 224 219 205 161 172 190 132 229 271 89 48 65 130 81 90 62 26 331 248 129 143 93 108 184 110 46 301 290 283 220 148 138 124 126 139 148 148 154 157 166 183 182 175
343 342 341 340 339 338 337 337 337 337 337 335 332 333 328 321 318 308 298 286 259 220 201 181 169 159 132 251 261 290 288 277 270 263 249 223 213 215 217 219 220 217 217 222 0 356 233 209 174 182 230 137 200 354 38 9 26 96 61 60 85 93 275 275 154 150 91 171 198 84 82 263 291 283 167 156 148 137 147 161 163 167 169 173 183 199 220 207
343 342 341 340 338 337 336 336 337 336 336 333 333 334 328 326 327 317 298 245 206 183 172 160 162 148 56 276 277 291 278 266 257 251 245 233 218 215 213 207 217 221 225 227 236 343 229 180 159 210 247 30 69 58 7 351 8 49 84 326 342 150 262 296 203 179 134 170 241 69 99 258 274 240 207 167 148 144 160 173 174 182 186 190 196 202 229 250
343 341 340 339 338 338 336 337 336 336 335 332 333 334 331 338 350 345 288 169 156 149 144 145 170 167 44 277 281 285 274 266 267 267 258 246 231 217 187 189 199 205 216 220 216 258 191 145 116 198 172 48 73 85 24 9 353 1 86 224 272 157 244 298 223 210 144 133 179 73 141 231 240 219 205 167 156 149 164 185 188 192 204 203 207 209 216 245
343 341 339 339 339 338 337 337 335 334 333 332 334 336 342 7 19 48 98 120 119 123 121 131 179 181 277 267 265 273 281 275 287 306 291 267 241 226 168 144 143 144 176 181 173 201 205 162 345 323 56 54 90 94 39 359 318 326 34 147 244 185 180 218 250 227 144 135 177 144 132 215 242 216 193 177 165 158 178 202 202 200 212 211 211 217 212 218
343 340 339 339 339 338 337 336 334 335 333 331 335 337 2 40 50 91 98 107 109 100 80 60 160 169 277 272 264 268 298 315 320 314 295 287 242 225 205 102 103 111 118 63 107 172 250 337 69 357 345 11 66 95 111 237 206 212 193 129 276 238 190 212 244 198 159 148 160 149 174 242 255 209 192 191 167 171 200 207 206 211 213 216 214 215 216 213
342 340 339 339 339 337 336 334 334 335 331 332 340 341 40 51 59 105 93 98 108 97 151 203 175 176 242 248 258 290 311 311 312 305 261 242 207 198 176 90 82 89 90 39 314 232 119 55 63 89 280 281 223 164 190 213 173 172 183 151 177 229 244 222 237 199 164 145 159 167 186 213 204 186 193 199 172 181 210 210 216 219 214 219 216 216 213 214
341 339 339 338 338 336 335 333 334 334 331 336 346 352 64 21 26 344 334 298 220 226 230 217 203 241 284 251 288 334 326 309 292 259 178 158 148 134 105 88 59 21 244 152 227 251 111 120 214 211 216 223 219 205 205 192 137 138 127 124 185 213 260 239 241 213 160 145 197 178 161 175 184 194 199 186 169 192 211 212 221 217 214 217 215 221 214 217
340 339 338 338 337 335 333 332 333 333 333 343 348 3 111 46 59 299 311 292 256 240 248 238 214 241 259 253 320 2 353 320 285 256 246 187 137 118 68 119 107 299 248 143 144 326 87 162 236 229 214 216 223 219 207 145 116 121 118 43 279 225 250 256 227 195 162 140 182 160 155 189 192 191 195 173 176 206 210 209 219 216 216 216 214 223 219 220
339 338 337 337 336 333 332 332 334 333 337 352 352 14 123 77 55 253 228 306 286 238 233 245 238 250 254 264 278 288 91 303 303 289 232 179 151 163 206 125 148 210 186 109 90 32 86 234 247 239 188 196 233 237 227 188 130 110 113 115 298 267 264 299 335 151 155 128 122 163 167 221 233 184 181 186 195 212 208 208 217 212 218 222 217 220 216 216
338 337 337 337 335 332 331 333 334 333 349 347 336 298 140 21 351 273 164 312 291 252 220 229 233 242 244 259 240 189 153 208 270 288 191 152 150 175 155 153 178 160 131 160 162 140 199 246 245 220 143 171 222 233 234 237 166 131 131 148 280 290 300 299 351 95 130 102 132 157 148 303 273 164 188 208 211 224 210 207 216 209 215 222 221 216 205 207
337 337 337 335 333 331 331 333 332 322 341 334 305 204 149 339 347 116 164 297 283 273 238 212 212 216 217 223 185 167 183 192 192 264 184 150 140 155 164 175 159 153 189 193 179 183 234 247 216 128 156 176 188 198 206 222 240 201 167 183 238 284 101 192 128 93 98 21 88 112 60 317 232 171 218 214 207 236 215 202 217 220 218 217 219 218 207 205
336 337 335 334 333 329 330 334 330 316 332 328 247 165 339 327 339 133 164 3 293 291 283 213 223 219 202 169 165 166 173 214 207 224 178 156 152 139 188 180 150 203 209 178 171 209 248 252 175 137 177 172 173 189 193 190 212 265 198 197 190 131 92 113 123 96 66 336 265 111 72 301 277 203 221 185 185 226 211 204 222 223 218 210 214 218 211 209
335 335 334 334 332 330 334 339 311 321 327 319 164 324 318 324 335 182 145 37 309 285 289 182 187 197 185 157 163 143 91 270 230 204 183 178 171 146 181 206 156 218 185 155 164 214 259 261 196 212 203 179 196 222 213 180 147 327 224 191 172 130 112 130 135 96 101 236 263 109 127 265 313 256 227 182 190 221 208 215 228 223 216 211 214 214 206 207
334 334 333 332 331 335 339 310 307 319 317 244 292 314 313 328 334 190 129 30 314 260 184 240 93 169 180 175 161 128 137 266 242 177 188 190 185 134 184 217 237 214 155 124 179 239 242 292 180 217 193 165 197 236 217 168 132 257 226 168 147 124 135 157 132 92 160 200 338 32 115 180 302 269 241 182 186 223 222 224 230 224 219 215 215 212 201 200
332 332 331 329 330 332 320 286 301 304 254 288 308 311 318 329 321 164 90 41 283 260 165 250 203 168 169 166 164 149 209 240 129 205 208 182 180 120 198 220 187 193 165 133 216 259 221 207 206 193 149 165 203 226 189 155 146 243 190 124 118 106 130 144 110 93 98 71 341 315 100 121 271 277 300 158 183 223 228 225 225 219 218 216 214 212 202 197
331 330 329 329 327 327 311 263 265 274 289 302 310 315 321 324 327 108 73 106 253 330 155 226 141 166 63 126 190 244 308 2 154 244 301 163 187 124 181 205 161 184 236 149 215 258 242 218 199 160 155 206 219 228 179 158 162 181 109 91 79 70 73 82 94 104 54 47 268 257 159 131 273 281 0 112 195 223 222 226 225 213 214 215 212 208 199 191
330 328 329 329 322 324 318 255 266 285 299 307 316 320 321 332 69 82 83 234 266 327 15 27 174 111 91 124 225 291 272 294 290 291 32 114 224 29 155 172 115 159 277 347 247 258 282 268 179 159 185 194 153 85 155 150 138 123 96 76 66 46 39 50 61 85 63 345 268 248 187 136 305 280 221 169 215 213 198 218 231 212 210 214 208 200 193 187
329 328 329 325 314 309 295 268 282 293 329 328 327 326 327 32 70 104 191 234 269 337 1 343 312 45 94 144 203 238 213 286 323 60 347 38 45 41 136 59 59 75 357 341 296 296 326 2 201 240 175 133 100 62 51 101 116 108 88 85 83 19 10 30 358 39 84 266 272 263 163 119 141 265 240 228 250 223 182 198 216 211 209 210 202 195 191 185
328 328 328 323 307 273 247 264 291 257 296 324 332 349 79 92 62 178 236 306 357 323 335 296 293 8 52 183 199 179 168 240 242 156 167 151 108 165 196 191 174 44 342 285 299 331 321 250 263 331 66 128 106 77 47 28 57 88 97 95 86 18 7 13 322 342 187 241 264 184 112 113 230 251 253 250 254 236 199 196 203 206 207 205 198 191 186 177
328 332 333 328 309 265 255 284 296 264 287 315 351 47 83 108 222 216 269 336 51 277 292 263 290 303 180 209 217 185 154 207 223 182 161 136 152 214 247 186 159 128 222 226 320 354 326 311 345 29 298 176 122 117 113 114 150 137 137 122 118 106 66 304 270 299 261 260 294 241 186 271 283 264 243 244 248 232 211 204 199 198 200 199 195 182 173 174
332 338 339 336 329 311 298 291 250 266 313 5 64 74 99 149 231 232 312 300 260 288 299 276 300 315 140 183 234 199 161 216 200 151 151 117 138 229 264 226 162 115 125 172 312 100 9 314 283 153 233 193 142 156 159 142 137 161 149 122 136 154 139 219 227 184 227 255 307 298 231 186 246 252 231 243 265 246 212 213 204 200 196 177 161 155 164 177
337 344 348 358 359 350 337 211 182 114 74 60 65 93 141 188 242 292 278 275 288 305 307 300 336 27 17 316 299 293 151 221 168 121 147 155 165 202 201 207 195 127 119 162 235 188 81 268 254 257 235 173 169 190 126 103 95 226 119 107 147 185 142 113 175 167 177 170 265 281 233 212 221 264 290 307 337 3 169 182 185 186 155 126 143 164 172 180
341 350 9 11 3 0 354 182 163 133 107 72 71 133 185 207 210 169 218 273 305 303 322 338 38 52 357 331 332 354 30 78 148 123 196 214 192 204 207 217 192 160 152 161 205 184 77 274 273 306 305 183 176 168 110 102 133 147 121 171 219 172 122 109 139 81 62 90 235 281 278 297 314 285 316 5 38 49 98 141 165 168 151 149 174 181 178 182
341 347 1 357 355 358 10 143 142 108 80 81 98 187 226 238 196 184 223 316 303 308 14 8 354 30 5 336 318 328 2 35 166 155 210 265 233 199 207 246 185 180 185 166 202 206 138 280 285 278 255 267 150 107 57 39 115 126 188 209 199 104 100 112 111 10 38 96 287 341 290 302 17 89 323 7 49 57 97 134 131 138 162 180 191 188 184 183
330 330 331 349 350 351 116 125 121 67 68 77 73 243 252 262 243 220 225 345 309 341 56 154 279 28 68 327 291 303 326 207 204 171 173 226 258 197 181 212 189 195 197 153 156 231 138 296 293 274 174 310 36 79 42 341 52 124 180 172 117 123 167 82 106 144 69 113 297 323 296 268 150 227 312 339 175 181 154 147 145 164 187 198 202 194 181 167
318 325 348 353 353 87 154 125 23 41 65 81 144 260 260 266 279 269 230 317 318 25 40 236 248 4 355 227 248 290 306 195 192 170 157 180 241 226 184 196 195 207 192 149 152 218 113 129 283 299 32 36 27 75 151 270 335 52 116 105 76 132 161 145 133 163 130 128 231 330 356 293 225 227 237 239 235 211 177 173 182 195 200 200 200 190 177 175
327 48 323 344 354 150 165 10 17 49 73 141 193 227 299 277 283 282 243 219 235 222 229 217 197 327 300 277 256 277 311 177 172 167 182 193 208 229 236 204 161 132 136 128 137 119 69 116 234 297 345 51 147 185 179 192 197 84 113 160 350 70 126 153 78 71 114 133 161 100 46 280 260 215 211 256 264 231 203 197 197 202 203 204 202 189 185 188
23 57 309 343 3 156 132 21 33 60 85 161 211 237 296 281 274 296 270 202 206 237 209 187 204 238 238 276 292 261 296 16 162 155 190 198 177 212 247 172 145 121 95 100 126 155 122 140 185 287 336 241 236 256 202 182 173 150 157 181 168 128 123 119 74 311 91 103 159 143 136 267 266 223 250 279 283 260 242 225 221 217 204 202 201 193 191 189
55 71 303 356 53 165 89 26 304 60 120 197 276 233 276 296 264 291 297 223 211 239 263 190 222 223 209 218 246 232 236 346 280 95 176 196 177 227 327 1 128 126 108 130 189 191 139 112 110 268 259 234 253 277 248 157 136 121 131 156 145 133 118 122 177 227 87 58 154 116 105 262 264 298 320 310 293 271 252 232 239 241 220 209 203 193 192 195
71 269 287 5 52 173 78 30 311 354 278 248 291 239 237 262 264 287 303 327 284 222 22 286 216 208 221 214 225 241 257 341 49 40 253 185 156 259 312 324 233 129 96 130 201 145 85 81 75 296 298 300 300 320 3 47 87 88 57 92 129 138 126 140 175 175 122 139 149 84 73 265 278 322 349 351 338 330 331 275 247 248 256 246 223 202 193 194
318 265 270 355 7 160 98 57 290 323 299 301 334 315 280 227 249 308 306 324 325 295 32 312 236 246 290 89 83 304 281 164 72 25 31 99 27 282 331 344 325 143 121 188 182 149 97 88 97 63 4 348 343 352 350 348 42 87 67 6 97 113 104 120 148 89 93 182 144 107 180 248 268 334 4 8 6 4 3 352 315 268 258 249 238 231 209 188
334 256 252 334 7 62 115 152 165 241 294 331 350 341 342 321 285 312 304 342 346 342 19 315 292 314 352 34 51 0 350 69 81 17 25 5 309 301 350 357 2 76 133 82 89 106 131 135 121 115 123 170 186 251 253 251 4 57 53 12 25 100 110 136 129 74 92 192 127 125 198 249 301 355 4 4 5 0 353 351 345 323 292 256 231 227 224 189
26 34 296 325 4 46 76 111 91 103 311 1 6 349 358 337 308 317 336 47 11 359 7 336 338 22 25 24 30 9 1 12 49 46 29 338 301 293 329 338 356 3 13 58 56 68 109 80 99 139 153 183 189 217 241 184 106 66 348 356 352 27 87 102 98 105 181 147 79 207 195 235 345 354 355 353 358 355 346 349 350 342 330 307 247 167 129 98
71 34 10 335 340 18 24 10 41 44 317 24 22 339 351 336 319 334 354 29 9 357 6 15 22 36 11 1 32 14 352 354 20 39 12 325 290 291 310 307 357 355 353 54 52 69 101 66 75 133 126 174 186 235 293 66 101 125 11 352 344 352 32 84 96 207 166 113 45 255 181 74 359 350 351 347 349 348 347 351 348 342 336 327 326 111 110 113
68 105 165 164 278 327 12 346 359 354 323 263 180 337 357 1 359 355 336 336 357 10 22 13 16 25 2 354 94 38 355 2 11 3 340 336 332 328 331 327 6 6 8 23 18 84 108 86 160 110 51 33 43 354 10 87 104 88 61 30 10 22 48 86 95 282 148 127 194 206 99 74 6 356 354 348 348 345 343 346 348 357 356 357 18 40 44 51
56 46 291 22 89 212 236 310 341 354 346 353 16 1 9 12 4 339 305 338 355 3 39 33 350 357 6 27 91 59 11 31 13 335 331 353 343 343 355 338 332 4 26 24 3 92 109 63 284 114 58 29 25 15 29 70 88 61 44 34 36 54 67 78 70 346 61 102 142 116 95 81 30 6 356 354 353 343 352 9 17 20 15 16 26 29 21 14
62 123 293 17 30 285 258 325 10 45 14 12 21 352 359 21 4 331 321 36 17 342 15 36 336 332 3 37 73 87 83 111 295 282 288 3 339 332 5 304 299 343 1 13 353 26 86 101 269 84 64 11 10 19 15 31 82 79 48 29 26 43 58 62 42 19 60 80 98 100 94 79 32 6 2 14 21 22 30 30 28 25 20 23 29 28 24 21
0 165 130 83 25 331 323 339 40 83 30 7 14 328 347 1 344 318 307 2 50 356 348 344 322 319 3 33 51 76 220 217 234 248 246 244 258 273 325 294 315 345 342 355 356 357 70 122 290 57 76 321 358 20 356 354 59 73 44 31 24 28 52 63 48 39 75 108 86 79 89 68 338 343 16 40 45 45 40 32 29 27 23 27 29 26 24 22
4 96 86 99 45 342 4 348 25 80 72 327 305 304 316 307 312 338 57 331 355 12 344 324 325 347 14 9 8 354 313 274 252 252 245 230 238 249 269 279 290 302 291 332 20 6 85 118 122 81 104 254 0 26 347 349 33 12 340 22 47 63 79 79 60 50 68 113 100 92 111 52 316 339 46 54 49 49 47 36 30 26 23 29 33 29 27 23